When you browse on this site, cookies collect data to enhance your experience and personalize the content and advertising you see.
Visit our Privacy Policy to learn more. By continuing to use the site, you agree to this use of cookies and data.
  • In Hungary
  • List of Countries
  • For 7 days
  • Water Temperature
  • Weather Map
  • News
  • Weather Widgets
  • user-avatar
    Login

    Hourly Weather Egypt Lake-Leto

    Today, 19 November, Tuesday

    Time Temperature Precipitation Wind Pressure Humidity
    00:00 +19°C° 0 mm 1 mps 757 mmHg 83%
    01:00 +18°C° 0 mm 1 mps 757 mmHg 85%
    02:00 +18°C° 0.1 mm 2 mps 757 mmHg 82%
    03:00 +18°C° 0.1 mm 2 mps 757 mmHg 79%
    04:00 +18°C° 0.1 mm 3 mps 757 mmHg 76%
    05:00 +18°C° 0 mm 3 mps 758 mmHg 74%
    06:00 +18°C° 0 mm 3 mps 758 mmHg 71%
    07:00 +18°C° 0 mm 4 mps 759 mmHg 68%
    08:00 +19°C° 0 mm 4 mps 759 mmHg 64%
    09:00 +20°C° 0 mm 4 mps 759 mmHg 61%
    10:00 +21°C° 0 mm 4 mps 760 mmHg 57%
    11:00 +21°C° 0 mm 5 mps 760 mmHg 56%
    12:00 +22°C° 0 mm 5 mps 759 mmHg 55%
    13:00 +22°C° 0 mm 6 mps 759 mmHg 53%
    14:00 +22°C° 0 mm 6 mps 759 mmHg 53%
    15:00 +21°C° 0 mm 5 mps 759 mmHg 53%
    16:00 +21°C° 0 mm 5 mps 759 mmHg 53%
    17:00 +20°C° 0 mm 4 mps 760 mmHg 56%
    18:00 +19°C° 0 mm 4 mps 760 mmHg 59%
    19:00 +18°C° 0 mm 3 mps 761 mmHg 62%
    20:00 +18°C° 0 mm 3 mps 761 mmHg 63%
    21:00 +17°C° 0 mm 2 mps 761 mmHg 64%
    22:00 +17°C° 0 mm 2 mps 762 mmHg 65%
    23:00 +17°C° 0 mm 2 mps 762 mmHg 66%

    Tomorrow, 20 November, Wednesday

    Time Temperature Precipitation Wind Pressure Humidity
    00:00 +17°C° 0 mm 2 mps 762 mmHg 67%
    01:00 +16°C° 0 mm 2 mps 762 mmHg 68%
    02:00 +16°C° 0 mm 2 mps 762 mmHg 70%
    03:00 +16°C° 0 mm 2 mps 762 mmHg 72%
    04:00 +16°C° 0 mm 2 mps 762 mmHg 73%
    05:00 +16°C° 0 mm 2 mps 762 mmHg 75%
    06:00 +15°C° 0 mm 2 mps 763 mmHg 77%
    07:00 +15°C° 0 mm 2 mps 763 mmHg 79%
    08:00 +17°C° 0 mm 2 mps 764 mmHg 71%
    09:00 +18°C° 0 mm 2 mps 764 mmHg 64%
    10:00 +20°C° 0 mm 2 mps 764 mmHg 56%
    11:00 +21°C° 0 mm 3 mps 764 mmHg 52%
    12:00 +22°C° 0 mm 3 mps 764 mmHg 48%
    13:00 +24°C° 0 mm 3 mps 763 mmHg 44%
    14:00 +24°C° 0 mm 3 mps 763 mmHg 45%
    15:00 +22°C° 0 mm 3 mps 763 mmHg 46%
    16:00 +22°C° 0 mm 4 mps 763 mmHg 46%
    17:00 +21°C° 0 mm 3 mps 763 mmHg 51%
    18:00 +19°C° 0 mm 3 mps 763 mmHg 56%
    19:00 +18°C° 0 mm 3 mps 764 mmHg 60%
    20:00 +18°C° 0 mm 3 mps 764 mmHg 61%
    21:00 +17°C° 0 mm 3 mps 764 mmHg 62%
    22:00 +17°C° 0 mm 3 mps 765 mmHg 63%
    23:00 +16°C° 0 mm 3 mps 765 mmHg 65%

    Day after tomorrow, 21 November, Thursday

    Time Temperature Precipitation Wind Pressure Humidity
    00:00 +16°C° 0 mm 3 mps 765 mmHg 66%
    01:00 +14°C° 0 mm 3 mps 764 mmHg 68%
    02:00 +14°C° 0 mm 3 mps 764 mmHg 70%
    03:00 +14°C° 0 mm 3 mps 764 mmHg 73%
    04:00 +13°C° 0 mm 3 mps 764 mmHg 75%
    05:00 +13°C° 0 mm 3 mps 765 mmHg 74%
    06:00 +13°C° 0 mm 3 mps 765 mmHg 74%
    07:00 +13°C° 0 mm 3 mps 765 mmHg 73%
    08:00 +16°C° 0 mm 3 mps 766 mmHg 68%
    09:00 +18°C° 0 mm 3 mps 766 mmHg 62%
    10:00 +20°C° 0 mm 3 mps 766 mmHg 57%
    11:00 +21°C° 0 mm 3 mps 766 mmHg 54%
    12:00 +22°C° 0 mm 3 mps 765 mmHg 52%
    13:00 +25°C° 0 mm 3 mps 765 mmHg 49%
    14:00 +25°C° 0 mm 3 mps 764 mmHg 50%
    15:00 +25°C° 0 mm 3 mps 764 mmHg 52%
    16:00 +25°C° 0 mm 3 mps 764 mmHg 53%
    17:00 +24°C° 0 mm 3 mps 764 mmHg 58%
    18:00 +21°C° 0 mm 3 mps 764 mmHg 62%
    19:00 +20°C° 0 mm 3 mps 765 mmHg 67%
    20:00 +19°C° 0 mm 4 mps 765 mmHg 70%
    21:00 +19°C° 0 mm 4 mps 765 mmHg 72%
    22:00 +18°C° 0 mm 4 mps 765 mmHg 75%
    23:00 +18°C° 0 mm 4 mps 764 mmHg 75%

    22 November, Friday

    Time Temperature Precipitation Wind Pressure Humidity
    00:00 +18°C° 0 mm 4 mps 764 mmHg 76%
    01:00 +17°C° 0 mm 3 mps 764 mmHg 77%
    02:00 +17°C° 0 mm 3 mps 763 mmHg 78%
    03:00 +17°C° 0 mm 3 mps 763 mmHg 79%
    04:00 +17°C° 0 mm 3 mps 763 mmHg 79%
    05:00 +16°C° 0 mm 3 mps 763 mmHg 81%
    06:00 +16°C° 0 mm 3 mps 763 mmHg 82%
    07:00 +16°C° 0 mm 3 mps 764 mmHg 84%
    08:00 +18°C° 0 mm 3 mps 764 mmHg 76%
    09:00 +20°C° 0 mm 3 mps 764 mmHg 69%
    10:00 +22°C° 0 mm 3 mps 764 mmHg 62%
    11:00 +24°C° 0 mm 3 mps 764 mmHg 58%
    12:00 +25°C° 0 mm 3 mps 763 mmHg 55%
    13:00 +26°C° 0 mm 3 mps 763 mmHg 51%
    14:00 +26°C° 0 mm 3 mps 762 mmHg 53%
    15:00 +26°C° 0 mm 3 mps 762 mmHg 54%
    16:00 +25°C° 0 mm 3 mps 761 mmHg 56%
    17:00 +24°C° 0 mm 2 mps 761 mmHg 59%
    18:00 +24°C° 0 mm 2 mps 762 mmHg 62%
    19:00 +23°C° 0 mm 1 mps 762 mmHg 65%
    20:00 +22°C° 0 mm 1 mps 762 mmHg 67%
    21:00 +22°C° 0 mm 1 mps 762 mmHg 68%
    22:00 +21°C° 0 mm 1 mps 762 mmHg 70%
    23:00 +21°C° 0 mm 1 mps 762 mmHg 72%

    23 November, Saturday

    Time Temperature Precipitation Wind Pressure Humidity
    00:00 +21°C° 0 mm 1 mps 762 mmHg 74%
    01:00 +20°C° 0 mm 1 mps 762 mmHg 76%
    02:00 +20°C° 0 mm 1 mps 761 mmHg 76%
    03:00 +20°C° 0 mm 2 mps 761 mmHg 76%
    04:00 +20°C° 0 mm 2 mps 761 mmHg 76%
    05:00 +19°C° 0 mm 2 mps 761 mmHg 80%
    06:00 +19°C° 0 mm 3 mps 761 mmHg 83%
    07:00 +19°C° 0 mm 3 mps 761 mmHg 87%
    08:00 +20°C° 0 mm 3 mps 761 mmHg 80%
    09:00 +22°C° 0 mm 3 mps 762 mmHg 74%
    10:00 +24°C° 0 mm 3 mps 762 mmHg 67%
    11:00 +25°C° 0 mm 3 mps 761 mmHg 63%
    12:00 +26°C° 0 mm 3 mps 761 mmHg 58%
    13:00 +27°C° 0 mm 3 mps 760 mmHg 53%
    14:00 +27°C° 0 mm 3 mps 760 mmHg 55%
    15:00 +27°C° 0 mm 4 mps 760 mmHg 57%
    16:00 +26°C° 0 mm 4 mps 759 mmHg 59%
    17:00 +26°C° 0 mm 4 mps 759 mmHg 65%
    18:00 +25°C° 0 mm 3 mps 760 mmHg 70%
    19:00 +24°C° 0 mm 3 mps 760 mmHg 76%
    20:00 +24°C° 0 mm 3 mps 760 mmHg 78%
    21:00 +24°C° 0 mm 3 mps 760 mmHg 80%
    22:00 +24°C° 0 mm 3 mps 760 mmHg 82%
    23:00 +24°C° 0 mm 3 mps 760 mmHg 83%

    24 November, Sunday

    Time Temperature Precipitation Wind Pressure Humidity
    00:00 +24°C° 0 mm 3 mps 759 mmHg 83%
    01:00 +24°C° 0 mm 3 mps 759 mmHg 84%
    02:00 +24°C° 0.1 mm 3 mps 759 mmHg 84%
    03:00 +24°C° 0.1 mm 3 mps 758 mmHg 84%
    04:00 +24°C° 0.1 mm 3 mps 758 mmHg 84%
    05:00 +22°C° 0.2 mm 3 mps 758 mmHg 86%
    06:00 +22°C° 0.2 mm 3 mps 759 mmHg 88%
    07:00 +22°C° 0.2 mm 3 mps 759 mmHg 89%
    08:00 +22°C° 0.2 mm 4 mps 759 mmHg 87%
    09:00 +23°C° 0.2 mm 4 mps 760 mmHg 84%
    10:00 +25°C° 0.2 mm 5 mps 760 mmHg 81%
    11:00 +25°C° 0 mm 5 mps 760 mmHg 76%
    12:00 +24°C° 0 mm 6 mps 759 mmHg 71%
    13:00 +24°C° 0 mm 6 mps 759 mmHg 66%
    14:00 +23°C° 0 mm 6 mps 759 mmHg 62%
    15:00 +22°C° 0 mm 6 mps 759 mmHg 57%
    16:00 +21°C° 0 mm 5 mps 759 mmHg 53%
    17:00 +20°C° 0 mm 5 mps 759 mmHg 56%
    18:00 +19°C° 0 mm 4 mps 759 mmHg 58%
    19:00 +18°C° 0 mm 4 mps 760 mmHg 61%
    20:00 +18°C° 0 mm 4 mps 760 mmHg 63%
    21:00 +17°C° 0 mm 4 mps 760 mmHg 65%
    22:00 +17°C° 0 mm 4 mps 760 mmHg 67%
    23:00 +17°C° 0 mm 4 mps 760 mmHg 66%
    Show more